SCP
0 0 0 0 0 0 0 0 0 0 0 0 0 0 0 0 0 0 0 0 0 0 0 0 0 0 0 0 0 0 0 0 0 0 0 0 0 0
0 0 0 0 0 0 0 0 0 0 0 0 0 0 0 0 0 0 0 0 0 0 0 0 0 0 0 0 0 0 0 0 0 0 0 0 0 0
0 0 0 0 0 0 0 0 0 0 0 0 0 0 0 0 0 0 0 0 0 0 0 0 0 0 0 0 0 0 0 0 0 0 0 0 0 0
0 0 0 0 0 0 0 0 0 0 0 0 0 0 0 0 0 0 0 0 0 0 0 0 0 0 0 0 0 0 0 0 0 0 0 0 0 0
0 0 0 0 0 0 0 0 0 0 0 0 0 0 0 0 0 0 0 0 0 0 0 0 0 0 0 0 0 0 0 0 0 0 0 0 0 0
0 0 0 0 0 0 0 0 0 0 0 0 0 0 0 0 0 0 0 0 0 0 0 0 0 0 0 0 0 0 0 0 0 0 0 0 0 0
0 0 0 0 0 0 0 0 0 0 0 0 0 0 0 0 0 0 0 0 0 0 0 0 0 0 0 0 0 0 0 0 0 0 0 0 0 0
0 0 0 0 0 0 0 0 0 0 0 0 0 0 0 0 0 0 0 0 0 0 0 0 0 0 0 0 0 0 0 0 0 0 0 0 0 0
0 0 0 0 0 0 0 0 0 0 0 0 0 0 0 0 0 0 0 0 0 0 0 0 0 0 0 0 0 0 0 0 0 0 0 0 0 0
0 0 0 0 0 0 0 0 0 0 0 0 0 0 0 0 0 0 0 0 0 0 0 0 0 0 0 0 0 0 0 0 0 0 0 0 0 0
0 0 0 0 0 0 0 0 0 0 0 0 0 0 0 0 0 0 0 0 0 0 0 0 0 0 0 0 0 0 0 0 0 0 0 0 0 0
0 0 0 0 0 0 0 0 0 0 0 0 0 0 0 0 0 0 0 0 0 0 0 0 0 0 0 0 0 0 0 0 0 0 0 0 0 0
0 0 0 0 0 0 0 0 0 0 0 0 0 0 0 0 0 0 0 0 0 0 0 0 0 0 0 0 0 0 0 0 0 0 0 0 0 0
0 0 0 0 0 0 0 0 0 0 0 0 0 0 0 0 0 0 0 0 0 0 0 0 0 0 0 0 0 0 0 0 0 0 0 0 0 0
0 0 0 0 0 0 0 0 0 0 0 0 0 0 0 0 0 0 0 0 0 0 0 0 0 0 0 0 0 0 0 0 0 0 0 0 0 0
0 0 0 0 0 0 0 0 0 0 0 0 0 0 0 0 0 0 0 0 0 0 0 0 0 0 0 0 0 0 0 0 0 0 0 0 0 0
0 0 0 0 0 0 0 0 0 0 0 0 0 0 0 0 0 0 0 0 0 0 0 0 0 0 0 0 0 0 0 0 0 0 0 0 0 0
0 0 0 0 0 0 0 0 0 0 0 0 0 0 0 0 0 0 0 0 0 0 0 0 0 0 0 0 0 0 0 0 0 0 0 0 0 0
0 0 0 0 0 0 0 0 0 0 0 0 0 0 0 0 0 0 0 0 0 0 0 0 0 0 0 0 0 0 0 0 0 0 0 0 0 0
0 0 0 0 0 0 0 0 0 0 0 0 0 0 0 0 0 0 0 0 0 0 0 0 0 0 0 0 0 0 0 0 0 0 0 0 0 0
0 0 0 0 0 0 0 0 0 0 0 0 0 0 0 0 0 0 0 0 0 0 0 0 0 0 0 0 0 0 0 0 0 0 0 0 0 0
0 0 0 0 0 0 0 0 0 0 0 0 0 0 0 0 0 0 0 0 0 0 0 0 0 0 0 0 0 0 0 0 0 0 0 0 0 0
0 0 0 0 0 0 0 0 0 0 0 0 0 0 0 0 0 0 0 0 0 0 0 0 0 0 0 0 0 0 0 0 0 0 0 0 0 0
Wind_Speed
1 1 1 1 1 1 1 2 2 2 2 2 1 1 1 1 2 2 2 4 6 6 6 6 6 5 5 5 5 5 5 5 5 6 6 7 8 8
1 1 1 1 1 0 0 0 1 2 2 1 1 1 1 2 3 2 1 4 5 6 6 5 6 6 5 5 6 5 5 5 5 6 7 7 8 8
1 1 1 1 1 0 0 0 1 1 2 2 1 1 0 1 2 2 1 1 2 4 5 5 6 6 6 6 6 6 6 6 6 6 7 7 8 8
2 1 2 1 1 1 1 1 1 2 2 2 1 1 1 1 1 2 2 2 1 4 5 5 6 6 6 6 6 6 6 6 6 6 7 8 8 9
2 2 2 1 2 2 1 1 1 1 2 2 2 1 1 1 1 2 2 2 3 3 4 5 6 7 7 7 6 6 6 6 6 6 6 7 8 9
2 2 2 2 3 3 2 2 2 1 2 2 2 1 1 1 0 1 2 2 2 3 4 5 6 7 7 7 6 6 6 6 6 6 6 6 7 8
2 2 2 2 3 3 2 2 2 2 2 2 2 1 1 0 1 1 1 2 2 1 2 3 3 3 4 6 6 6 6 5 5 6 6 6 7 8
2 2 2 2 3 4 4 2 2 2 3 2 2 2 2 1 1 1 1 1 2 1 2 3 2 2 3 3 6 7 7 6 6 6 7 7 7 7
2 2 1 2 2 1 2 2 2 2 2 2 3 2 2 2 1 1 2 2 3 2 2 3 2 2 3 4 7 7 6 6 6 6 7 7 7 7
2 2 2 2 2 1 1 0 1 1 2 1 2 3 3 2 2 2 2 2 2 2 1 2 2 2 4 3 6 6 6 6 7 7 7 7 7 8
2 2 2 2 2 1 1 1 0 1 2 1 2 2 3 2 1 1 0 1 2 2 1 1 2 3 3 3 3 6 7 8 8 8 8 8 8 7
1 1 2 2 2 2 2 2 1 1 0 1 1 1 1 0 1 1 2 2 1 2 1 0 1 2 3 2 2 3 3 6 8 8 8 8 8 5
1 1 1 2 2 1 1 2 2 1 1 0 0 1 1 0 1 0 1 2 2 3 2 0 1 1 1 3 3 2 2 2 3 4 6 8 9 6
1 1 1 1 1 0 0 0 1 2 1 0 0 0 0 1 1 1 1 1 2 3 3 2 1 2 2 3 3 3 2 2 2 3 3 6 7 8
1 1 1 1 1 1 1 2 2 1 1 1 0 1 1 1 0 1 1 1 1 2 2 2 2 2 2 3 3 3 3 3 2 2 3 3 4 4
1 0 1 2 2 2 2 1 1 0 1 0 0 1 1 1 0 0 1 1 1 2 2 1 2 2 3 3 4 4 3 3 3 3 3 3 3 3
0 1 1 1 1 1 1 1 1 1 1 0 0 0 1 1 1 1 1 1 1 1 2 2 2 1 3 3 3 3 3 3 3 3 3 4 4 4
1 1 1 1 0 0 0 0 0 0 0 0 0 1 1 1 1 1 1 1 1 1 1 1 2 2 2 2 3 3 2 2 3 3 3 3 4 4
2 1 1 1 1 0 0 0 0 0 0 0 0 0 1 1 1 1 1 1 1 2 2 1 1 1 2 3 3 2 2 2 3 3 3 3 4 5
1 1 1 1 1 1 1 0 0 0 0 0 0 1 1 1 1 1 1 1 2 2 2 2 1 1 2 2 2 3 4 3 3 3 3 3 4 6
0 0 0 0 1 1 1 0 1 1 0 0 1 1 1 1 1 1 1 3 2 1 2 2 2 4 2 1 2 2 3 4 4 3 3 3 4 3
0 0 1 0 0 0 1 1 1 1 0 0 1 1 1 1 1 1 1 2 2 2 2 2 2 2 1 1 2 3 3 4 4 6 6 5 3 3
1 1 1 1 1 1 1 1 1 1 1 1 1 1 1 1 1 1 2 2 2 2 2 2 2 1 1 1 2 2 4 4 3 4 4 6 7 8
Wind_Direction
281 275 275 277 266 261 199 179 176 218 257 274 299 341 352 355 5 11 356 353 353 350 344 343 344 340 337 328 321 318 317 317 314 311 306 304 306 309
284 291 289 274 292 298 228 266 209 197 230 256 269 288 338 349 355 4 345 358 351 347 346 345 345 340 333 336 333 324 313 309 310 306 304 302 305 309
286 269 271 283 281 283 305 264 226 219 232 268 270 279 326 338 338 339 336 340 333 340 338 341 345 341 334 329 327 325 319 312 308 304 301 301 303 309
260 258 264 270 262 258 247 238 233 234 207 233 251 272 272 309 332 332 339 347 328 329 335 343 347 344 334 327 326 323 318 312 310 309 307 305 306 306
244 237 243 244 259 252 248 241 243 248 207 193 227 242 279 323 358 343 346 343 339 338 348 355 352 345 337 333 328 328 324 316 310 306 305 308 308 306
250 241 239 234 240 235 239 236 231 233 205 187 208 226 259 295 28 346 343 348 338 343 354 353 351 348 343 341 335 328 324 317 313 311 312 313 312 309
262 254 251 255 259 254 242 221 205 212 211 200 213 210 208 254 296 311 323 328 327 343 343 337 337 334 334 334 336 332 323 319 318 319 317 317 317 316
257 265 260 251 269 270 262 244 222 213 216 210 217 214 230 236 244 263 290 317 312 336 343 320 328 322 321 317 329 333 335 332 329 328 327 325 326 324
243 253 277 284 297 266 266 279 280 278 256 227 212 229 232 227 228 257 266 275 269 279 315 303 324 319 317 323 329 332 334 336 338 336 333 332 332 331
237 231 234 257 259 244 206 228 291 312 297 253 217 230 233 229 219 230 248 286 287 297 297 289 317 312 317 314 324 340 351 348 343 341 338 333 329 326
254 240 234 233 246 244 165 165 247 309 332 313 264 251 250 258 242 126 175 303 302 303 327 268 299 313 311 306 323 348 350 346 343 342 340 338 334 331
245 247 254 253 254 234 172 168 212 244 259 356 8 352 343 288 277 194 190 212 270 285 279 273 284 328 321 307 313 319 326 332 336 338 339 338 336 332
225 248 261 272 268 255 208 175 209 211 139 87 337 330 360 359 319 271 209 205 229 256 252 253 268 287 279 303 317 316 319 322 324 323 331 334 331 328
232 236 248 276 299 278 78 85 71 79 101 98 30 310 291 295 311 310 280 260 244 246 243 225 234 247 270 290 295 307 319 309 309 312 317 329 328 328
260 268 316 341 22 48 63 57 59 81 115 129 213 298 304 277 296 348 5 3 335 293 268 250 233 242 244 261 276 287 309 309 297 306 316 315 309 311
332 43 51 51 51 51 65 57 47 102 133 185 247 292 307 303 314 346 346 358 354 336 330 299 257 244 262 261 258 273 278 281 300 305 305 303 301 301
132 93 76 69 67 49 54 52 49 63 62 38 338 307 322 338 335 341 342 350 325 306 326 342 337 303 267 259 257 258 266 273 278 298 309 309 303 299
132 138 135 123 145 157 136 48 28 48 34 335 331 320 327 323 331 340 336 327 304 296 300 311 334 344 343 315 252 251 262 273 290 299 299 301 302 303
130 150 157 169 169 158 197 228 262 296 321 331 335 322 325 330 334 331 332 325 306 296 291 288 296 307 315 315 307 271 260 287 295 298 291 284 289 297
95 158 179 190 190 195 212 235 260 278 287 299 297 299 307 316 320 316 311 307 307 310 312 310 292 272 258 268 281 291 283 279 287 293 298 296 288 295
0 308 283 233 203 203 212 221 230 246 272 292 284 287 285 290 297 306 311 318 325 317 306 301 294 307 298 274 279 286 290 296 295 290 297 304 307 310
324 311 314 312 255 220 210 211 231 249 263 277 280 275 290 290 283 290 294 300 303 302 303 302 306 319 311 282 287 294 304 314 317 316 306 290 292 293
326 320 315 300 279 247 218 216 233 248 256 261 270 268 268 280 283 286 291 294 301 303 312 317 324 322 309 291 291 298 307 317 322 328 321 317 308 294